Weather in Semenovka

Russia / Tambov Oblast     52°11′18″N   41°05′44″E
temp.,
°C
wind,
m/s
gust,
m/s
humid.,
%
clouds,
%
prec.,
mm/h
press.,
hPa
HPBL,
m
28 february, sun
sun2800:00−8nnw489485 0.0 1013324
03:00−10nw369557 0.0 1014186
06:00−10nw369444 0.0 1015180
09:00−8nw239465 0.1 1016185
12:00−6nw459096 0.1 1016499
15:00−5nw469098 0.1 1016531
18:00−6n2396100 0.1 1017103
21:00−8n249595 0.1 1019111
1 march, mon
mon100:00−9n229586 0.0 102138
03:00−10n229578 0.1 102223
06:00−10nnw229585 0.0 102328
09:00−7nw239492 0.1 1026150
12:00−5nw3485100 0.1 1026577
15:00−4w348599 0.1 1026502
18:00−4wsw489194 0.0 1025334
21:00−3wsw5109197 0.0 1024427
2 march, tue
tue200:00−4wsw61392100 0.0 1021361
03:00−2wsw71394100 0.1 1018533
06:00−1wsw81594100 0.4 1014565
09:00+1w91597100 1.5 1011779
12:00+1wnw81398100 0.4 1009753
15:00+1wnw61197100 0.9 1009783
18:00−1wnw5119282 0.3 1009308
21:00−2wnw5119788 0.4 1011410
3 march, wed
wed300:00−2nw6129299 0.3 1011501
03:00−3nw6129499 0.4 1011574
06:00−4nw6129498 0.1 1012587
09:00−4nnw8129099 0.3 1014781
12:00−3nnw71187100 0.1 1016918
15:00−3nnw81183100 0.2 1017975
18:00−3nw61293100 0.1 1017604
21:00−4nw5119296 0.3 1020453
4 march, thu
thu400:00−6wnw369556 0.0 1020139
03:00−6w379761 0.0 1020160
06:00−6wsw369448 0.0 1020119
09:00−4wsw5109224 0.0 1020330
12:00−1wsw711856 0.0 1018587
15:000wsw6128023 0.0 1015672
18:00−1sw6148157 0.0 1013374
21:00−1sw7168441 0.0 1011515